星链-31311 (STARLINK-31311 )

导读

STARLINK-31311是美国太空探索技术公司(SpaceX)于2024年2月10日发射的星链(Starlink)低轨互联网卫星。星链计划是全球规模最大的卫星互联网项目,计划总计部署超4万颗近地轨道卫星,旨在为全球提供不受地域限制的高速宽带互联网接入服务,STARLINK-31311是星链星座组网过程中的重要组成部分,助力星链完善全球网络覆盖能力。

Basic Information
目录编号:
58948
目录名称:
STARLINK-31311
国际标识:
2024-027T
轨道中心:
EARTH
卫星名称:
星链-31311
卫星全名:
星链-31311 (STARLINK-31311 )
卫星状态:
在轨 (已飞行859 天)
发射日期:
2024-02-10 UTC
国别 :
美国 (US)
星等 :
--
Orbit Information
数据来源 国际轨道数据 AOE轨道数据
星历时间 2026-06-17T17:15:53+0800
22小时前
查看轨道信息
2026-06-17T08:00:00+0800
1天前
查看轨道信息
半长轴 6853.364km 6853.373km
偏心率 0.0001154 0.0001274
轨道倾角 53.160° 53.158°
近地点辐角 89.197° 76.031°
升交点赤经 204.323° 206.115°
平近点角 270.917° 316.403°
近地点 474.436km 474.362km
远地点 476.018km 476.11km
周期 94.106分钟 94.106分钟
每日圈数 15.301961 15.301933
Detailed Information
固有亮度:
5
最大亮度:
0.3
卫星平台:
Starlink v2.0 mini
覆盖范围:
全球
运营商:
太空探索技术公司
运营商所在国:
美国
制造商(研发单位):
太空探索技术公司
制造商所在国:
美国
使用方式:
暂无
Satellite Introduction
星链(Starlink)计划是由太空探索技术公司(SpaceX)提出的一个巨型低轨卫星互联网星座项目,计划在2019年至2024年间在太空搭建由约1.2万颗卫星组成的“星链”网络,其中1584颗将部署在地球上空550千米处的近地轨道,并从2020年开始工作。该卫星仍在工作。
2D Orbit Map
3D Orbit Map
Orbit Altitude Analysis Chart
Orbit Inclination Analysis Chart
Orbit Comprehensive Analysis Chart
View Comprehensive Chart